Hourly Weather Bolshoy Abanur

Today, 31 July, Saturday

Time Temperature Precipitation Wind Pressure Humidity
00:00 +20°C° 0.1 mm 3 mps 743 mmHg 85%
01:00 +19°C° 0.5 mm 2 mps 743 mmHg 89%
02:00 +19°C° 0.5 mm 2 mps 742 mmHg 93%
03:00 +19°C° 0.5 mm 2 mps 742 mmHg 97%
04:00 +20°C° 0.4 mm 1 mps 742 mmHg 97%
05:00 +20°C° 0.4 mm 1 mps 742 mmHg 97%
06:00 +20°C° 0.4 mm 1 mps 742 mmHg 97%
07:00 +21°C° 0.1 mm 1 mps 742 mmHg 93%
08:00 +21°C° 0.1 mm 2 mps 742 mmHg 89%
09:00 +21°C° 0.1 mm 2 mps 742 mmHg 85%
10:00 +24°C° 0.4 mm 3 mps 742 mmHg 79%
11:00 +25°C° 0.4 mm 3 mps 741 mmHg 72%
12:00 +27°C° 0.4 mm 4 mps 741 mmHg 65%
13:00 +27°C° 0.5 mm 4 mps 742 mmHg 62%
14:00 +27°C° 0.5 mm 4 mps 742 mmHg 59%
15:00 +28°C° 0.5 mm 4 mps 742 mmHg 56%
16:00 +27°C° 0 mm 4 mps 742 mmHg 56%
17:00 +26°C° 0 mm 4 mps 742 mmHg 57%
18:00 +25°C° 0 mm 4 mps 743 mmHg 57%
19:00 +22°C° 0 mm 3 mps 743 mmHg 62%
20:00 +21°C° 0 mm 3 mps 743 mmHg 67%
21:00 +19°C° 0 mm 3 mps 744 mmHg 72%
22:00 +19°C° 0 mm 3 mps 744 mmHg 70%
23:00 +19°C° 0 mm 3 mps 744 mmHg 68%

Tomorrow, 1 August, Sunday

Time Temperature Precipitation Wind Pressure Humidity
00:00 +18°C° 0 mm 3 mps 745 mmHg 67%
01:00 +18°C° 0 mm 3 mps 745 mmHg 69%
02:00 +17°C° 0 mm 3 mps 745 mmHg 72%
03:00 +16°C° 0 mm 2 mps 746 mmHg 74%
04:00 +17°C° 0 mm 3 mps 746 mmHg 72%
05:00 +18°C° 0 mm 3 mps 746 mmHg 69%
06:00 +19°C° 0 mm 3 mps 747 mmHg 67%
07:00 +21°C° 0 mm 3 mps 747 mmHg 62%
08:00 +22°C° 0 mm 4 mps 747 mmHg 56%
09:00 +25°C° 0 mm 4 mps 747 mmHg 51%
10:00 +26°C° 0 mm 4 mps 748 mmHg 48%
11:00 +27°C° 0 mm 5 mps 748 mmHg 45%
12:00 +28°C° 0 mm 5 mps 748 mmHg 43%
13:00 +28°C° 0 mm 5 mps 748 mmHg 42%
14:00 +29°C° 0 mm 5 mps 748 mmHg 41%
15:00 +29°C° 0 mm 4 mps 748 mmHg 41%
16:00 +28°C° 0 mm 4 mps 748 mmHg 45%
17:00 +28°C° 0 mm 3 mps 748 mmHg 49%
18:00 +27°C° 0 mm 2 mps 748 mmHg 53%
19:00 +26°C° 0 mm 2 mps 748 mmHg 56%
20:00 +24°C° 0 mm 2 mps 748 mmHg 59%
21:00 +23°C° 0 mm 2 mps 748 mmHg 63%
22:00 +23°C° 0 mm 2 mps 748 mmHg 63%
23:00 +21°C° 0 mm 2 mps 748 mmHg 64%

Day after tomorrow, 2 August, Monday

Time Temperature Precipitation Wind Pressure Humidity
00:00 +21°C° 0 mm 2 mps 748 mmHg 65%
01:00 +21°C° 0 mm 2 mps 748 mmHg 67%
02:00 +20°C° 0 mm 2 mps 749 mmHg 68%
03:00 +20°C° 0 mm 2 mps 749 mmHg 69%
04:00 +20°C° 0 mm 2 mps 749 mmHg 70%
05:00 +20°C° 0 mm 2 mps 749 mmHg 70%
06:00 +21°C° 0 mm 2 mps 749 mmHg 70%
07:00 +22°C° 0 mm 3 mps 749 mmHg 65%
08:00 +25°C° 0 mm 3 mps 749 mmHg 60%
09:00 +26°C° 0 mm 3 mps 749 mmHg 55%
10:00 +28°C° 0 mm 3 mps 749 mmHg 51%
11:00 +29°C° 0 mm 4 mps 749 mmHg 47%
12:00 +32°C° 0 mm 4 mps 749 mmHg 43%
13:00 +32°C° 0 mm 4 mps 748 mmHg 44%
14:00 +30°C° 0 mm 4 mps 748 mmHg 45%
15:00 +30°C° 0 mm 3 mps 748 mmHg 47%
16:00 +29°C° 0 mm 3 mps 748 mmHg 49%
17:00 +29°C° 0 mm 2 mps 748 mmHg 52%
18:00 +29°C° 0 mm 1 mps 748 mmHg 55%
19:00 +28°C° 0 mm 2 mps 747 mmHg 58%
20:00 +26°C° 0 mm 2 mps 747 mmHg 60%
21:00 +25°C° 0 mm 3 mps 747 mmHg 63%
22:00 +24°C° 0 mm 3 mps 747 mmHg 67%
23:00 +23°C° 0 mm 2 mps 747 mmHg 71%

3 August, Tuesday

Time Temperature Precipitation Wind Pressure Humidity
00:00 +21°C° 0 mm 2 mps 747 mmHg 75%
01:00 +20°C° 0.3 mm 2 mps 747 mmHg 80%
02:00 +20°C° 0.3 mm 2 mps 746 mmHg 85%
03:00 +19°C° 0.3 mm 2 mps 746 mmHg 89%
04:00 +19°C° 0 mm 3 mps 746 mmHg 86%
05:00 +20°C° 0 mm 3 mps 746 mmHg 82%
06:00 +20°C° 0 mm 4 mps 746 mmHg 79%
07:00 +23°C° 0 mm 4 mps 745 mmHg 68%
08:00 +26°C° 0 mm 4 mps 745 mmHg 58%
09:00 +28°C° 0 mm 4 mps 745 mmHg 47%
10:00 +30°C° 0 mm 5 mps 745 mmHg 43%
11:00 +33°C° 0 mm 5 mps 744 mmHg 38%
12:00 +35°C° 0 mm 6 mps 744 mmHg 34%
13:00 +33°C° 0 mm 6 mps 744 mmHg 40%
14:00 +30°C° 0 mm 7 mps 744 mmHg 46%
15:00 +28°C° 0 mm 7 mps 744 mmHg 51%
16:00 +28°C° 0.2 mm 6 mps 745 mmHg 54%
17:00 +27°C° 0.2 mm 5 mps 745 mmHg 58%
18:00 +27°C° 0.2 mm 4 mps 745 mmHg 61%
19:00 +25°C° 0.3 mm 3 mps 745 mmHg 70%
20:00 +22°C° 0.3 mm 3 mps 745 mmHg 79%
21:00 +21°C° 0.3 mm 2 mps 745 mmHg 89%
22:00 +20°C° 0.7 mm 2 mps 745 mmHg 91%
23:00 +20°C° 0.7 mm 2 mps 745 mmHg 93%

4 August, Wednesday

Time Temperature Precipitation Wind Pressure Humidity
00:00 +19°C° 0.7 mm 2 mps 746 mmHg 96%
01:00 +19°C° 0.2 mm 2 mps 745 mmHg 96%
02:00 +19°C° 0.2 mm 2 mps 745 mmHg 96%
03:00 +18°C° 0.2 mm 2 mps 745 mmHg 97%
04:00 +19°C° 0 mm 2 mps 745 mmHg 96%
05:00 +19°C° 0 mm 2 mps 746 mmHg 96%
06:00 +19°C° 0 mm 3 mps 746 mmHg 95%
07:00 +19°C° 0 mm 3 mps 746 mmHg 92%
08:00 +19°C° 0 mm 4 mps 747 mmHg 88%
09:00 +19°C° 0 mm 5 mps 747 mmHg 85%
10:00 +20°C° 0 mm 5 mps 747 mmHg 81%
11:00 +20°C° 0 mm 4 mps 748 mmHg 77%
12:00 +21°C° 0 mm 4 mps 748 mmHg 72%
13:00 +22°C° 0 mm 4 mps 748 mmHg 67%
14:00 +23°C° 0 mm 4 mps 748 mmHg 62%
15:00 +25°C° 0 mm 4 mps 749 mmHg 57%
16:00 +23°C° 0 mm 4 mps 749 mmHg 58%
17:00 +24°C° 0 mm 3 mps 749 mmHg 59%
18:00 +24°C° 0 mm 3 mps 750 mmHg 60%
19:00 +21°C° 0 mm 3 mps 750 mmHg 67%
20:00 +19°C° 0 mm 2 mps 750 mmHg 74%
21:00 +17°C° 0 mm 2 mps 750 mmHg 80%
22:00 +16°C° 0 mm 2 mps 751 mmHg 85%
23:00 +16°C° 0 mm 2 mps 751 mmHg 89%

5 August, Thursday

Time Temperature Precipitation Wind Pressure Humidity
00:00 +15°C° 0 mm 2 mps 751 mmHg 93%
01:00 +14°C° 0 mm 2 mps 752 mmHg 94%
02:00 +14°C° 0 mm 2 mps 752 mmHg 95%
03:00 +14°C° 0 mm 2 mps 752 mmHg 95%
04:00 +14°C° 0 mm 2 mps 752 mmHg 92%
05:00 +15°C° 0 mm 2 mps 753 mmHg 89%
06:00 +16°C° 0 mm 2 mps 753 mmHg 86%
07:00 +17°C° 0 mm 2 mps 753 mmHg 78%
08:00 +19°C° 0 mm 2 mps 753 mmHg 70%
09:00 +21°C° 0 mm 2 mps 753 mmHg 61%
10:00 +23°C° 0 mm 2 mps 753 mmHg 57%
11:00 +24°C° 0 mm 2 mps 753 mmHg 53%
12:00 +25°C° 0 mm 3 mps 753 mmHg 48%
13:00 +24°C° 0 mm 2 mps 753 mmHg 51%
14:00 +24°C° 0 mm 2 mps 753 mmHg 53%
15:00 +23°C° 0 mm 2 mps 753 mmHg 56%
16:00 +23°C° 0 mm 2 mps 753 mmHg 57%
17:00 +21°C° 0 mm 2 mps 754 mmHg 57%
18:00 +21°C° 0 mm 2 mps 754 mmHg 58%
19:00 +20°C° 0 mm 2 mps 754 mmHg 62%
20:00 +18°C° 0 mm 2 mps 754 mmHg 66%
21:00 +17°C° 0 mm 2 mps 754 mmHg 70%
22:00 +16°C° 0 mm 2 mps 754 mmHg 73%
23:00 +15°C° 0 mm 2 mps 754 mmHg 77%
Show more

We Need Your Consent

Meteoprog and our Service Providers may store and access personal data such as cookies, device identifiers or other similar technologies on your device and process such data to personalise content and ads, as well as provide social media features and to analyse the traffic.

  • Store and/or access information on your device

    Cookies, device identifiers or other information can be stored or accessed on your device for the purposes indicated above.

  • Personalised ads and content, ad and content measurement, audience insights, and products development

    Ads and content can be personalised based on a profile. More data can be added to better personalise ads and content. Ad and content performance can be measured. Insights about the audience who saw the ads and content can be derived. Such data can be used to develop or improve user’s experience, systems and software.

By clicking ‘I Agree’ you will allow the use of indicated cookies, device identifiers, web beacons or other similar technologies. Your settings can be changed in the browser on your device.

For certain purposes, legitimate interests may be relied on, rather than consent. You can read more about this in our Privacy and Cookie Policy.